www.pogodaiklimat.ru

Погода и климат >> Архив погоды >> Антарктида >> Marambio Base


ПОГОДА в Marambio Base

  • Прогноз погоды в Marambio Base
  • Монитор погоды в Marambio Base
  • Климат города

АРХИВ ПОГОДЫ в Marambio Base

Время (UTC), дата Ветер
(напр.,м/с)
 
Видим.   Явления Облачность Т
(С)
Тd
(С)
f
(%)
Тe
(С)
Тes
(С)
Комфортность P
(гПа)
Po
(гПа)
Тmin
(С)
Tmax
(С)
R
(мм)
R24
(мм)
S
(см)
06 15.09 ЮЗ 3 15 км ясно -16.8 -18.7 85 -24 -24 984.7 959.0
09 15.09 ЮВ 3 15 км ясно -14.9 -16.6 87 -22 -22 984.9 959.4
12 15.09 В 3 15 км ясно -13.4 -15.0 88 -19 -18 985.6 960.1 -19.1 -13.2
15 15.09 ЮВ 3 6000 м слабый снег 10/10 180 м
[St]
-12.8 -14.3 88 -19 -19 986.3 960.9
18 15.09 Ю 4 6000 м слабый снег {туман} 10/10 240 м
[St]
-12.6 -14.1 89 -19 -19 987.4 961.8
21 15.09 Ю 1 15 км слабый снег {туман} 6/6 210 м
[St]
-13.2 -14.8 88 -13 -13 989.0 963.6
00 16.09 СЗ 4 15 км слабый снег {туман} 8/8 150 м
[St]
-13.4 -15.0 88 -21 -21 990.3 964.9 -14.1 -12.4
03 16.09 С 7 15 км в посл. час снег 10/10 90 м
[St]
-12.8 -14.3 88 -23 -23 990.1 964.8
06 16.09 С 6 15 км {снег} 10/10 90 м
[St]
-10.4 -11.7 90 -19 -19 989.9 964.6
09 16.09 СЗ 7 15 км 6/0
[Cs]
-9.3 -10.4 92 -19 -19 988.8 963.6
12 16.09 СЗ 8 15 км ясно -7.4 -8.7 90 -17 -16 988.2 963.0 -14.1 -7.2
15 16.09 ЮЗ 7 15 км ясно -2.4 -9.6 58 -10 -9 988.3 963.4
18 16.09 Ю 9 15 км ясно -7.6 -13.0 65 -17 -17 992.9 967.8
21 16.09 С 8 15 км 9/0
[Ac As Cs]
-7.8 -12.3 70 -17 -17 993.1 968.1
00 17.09 СЗ 7 15 км 8/0
[Cs]
-5.4 -6.1 95 -14 -14 991.2 966.4 -10.1 -2.2
03 17.09 СЗ 6 15 км 9/0
[Cs]
-4.7 -7.4 81 -12 -12 990.5 966.0
06 17.09 З 10 15 км 1/0
[Cs]
-4.4 -6.7 84 -14 -14 988.5 963.8
09 17.09 СЗ 9 15 км 1/1 600 м
[St]
-5.1 -5.8 95 -15 -15 985.9 961.3
12 17.09 ЮЗ 20 200 м туман {снег} 8/8 30 м
[St]
-16.1 -18.0 85 -32 -32 опасность
обморожения
987.0 961.8 -16.2 -3.4
15 17.09 ЮЗ 17 400 м туман 9/3 1350 м
[Sc Ac As]
-17.1 -19.1 84 -33 -33 опасность
обморожения
989.1 964.0
18 17.09 ЮЗ 14 400 м туман местами 9/3 360 м
[Sc Ac As]
-17.3 -19.3 84 -32 -32 опасность
обморожения
990.4 965.2
21 17.09 ЮЗ 16 600 м туман местами 4/4 120 м
[St]
-19.5 -21.7 83 -36 -36 опасность
обморожения
991.6 966.2
00 18.09 Ю 12 700 м туман местами {метель} ясно -20.5 -22.8 82 -35 -35 опасность
обморожения
993.6 967.6 -21.1 -15.8
03 18.09 Ю 10 5000 м позёмок {туман, метель} 6/6 180 м
[St]
-21.3 -23.6 82 -35 -35 опасность
обморожения
994.7 968.6
06 18.09 Ю 5 15 км {туман, метель} ясно -21.7 -24.1 81 -32 -32 опасность
обморожения
995.8 969.6
09 18.09 Ю 5 15 км 4/0
[Cs]
-21.9 -24.3 81 -32 -32 опасность
обморожения
995.9 969.6
12 18.09 Ю 5 15 км 9/0
[Cs]
-20.0 -22.2 83 -30 -30 996.7 970.4 -23.6 -19.3
15 18.09 Ю 8 15 км 10/1 120 м
[St As op]
-19.4 -21.6 83 -32 -32 опасность
обморожения
997.4 971.0
18 18.09 Ю 12 15 км 10/1 120 м
[St As op]
-19.4 -21.6 83 -34 -34 опасность
обморожения
998.0 971.7
21 18.09 Ю 10 15 км 10/3 600 м
[Sc As op]
-19.9 -22.1 83 -34 -34 опасность
обморожения
1000.1 973.7
00 19.09 Ю 10 15 км 10/4 600 м
[Sc As op]
-20.4 -22.7 82 -34 -34 опасность
обморожения
1002.3 975.8 -20.5 -18.5
06 19.09 СВ 2 15 км ясно -19.8 -22.0 83 -25 -25 1007.2 980.6
09 19.09 С 8 15 км ясно -17.9 -19.9 84 -29 -29 1007.5 981.0
12 19.09 СЗ 10 15 км ясно -14.2 -15.9 87 -26 -26 1008.2 981.8 -22.6 -14.0
15 19.09 СЗ 10 15 км 3/0
[Ci fib]
-9.2 -10.8 88 -20 -19 1008.4 982.4
18 19.09 СЗ 8 15 км 5/0
[Cs]
-6.2 -9.7 76 -15 -15 1009.3 983.4
21 19.09 СЗ 8 15 км 3/0
[Cs]
-7.4 -10.4 79 -16 -16 1009.3 983.4
00 20.09 СЗ 6 15 км ясно -8.5 -12.2 75 -17 -17 1009.9 984.2 -15.6 -6.0
03 20.09 СЗ 6 15 км ясно -8.8 -13.6 68 -17 -17 1009.1 983.6
06 20.09 СЗ 3 15 км ясно -10.5 -11.8 90 -16 -16 1008.1 982.6
09 20.09 СЗ 3 15 км ясно -9.8 -11.0 91 -16 -16 1007.5 982.1
12 20.09 СЗ 3 15 км ясно -8.7 -15.2 59 -14 -12 1008.4 983.0 -11.1 -7.8
15 20.09 Ю 2 15 км ясно -3.6 -11.0 56 -7 -3 1008.9 983.7
18 20.09 Ю 4 15 км 3/0
[Cs]
-10.7 -12.0 90 -18 -16 1009.0 983.4
21 20.09 Ю 9 15 км 5/0
[Cs]
-12.4 -13.9 89 -23 -23 1010.1 984.4
00 21.09 Ю 8 15 км 4/0
[Cs]
-12.8 -14.3 88 -23 -23 1011.5 985.8 -13.6 -1.8
03 21.09 Ю 7 15 км 5/0
[Cs]
-14.1 -15.8 87 -24 -24 1011.5 986.0
06 21.09 Ю 9 15 км 10/0
[Cs]
-14.4 -16.1 87 -26 -26 1011.2 985.3
09 21.09 Ю 11 15 км 9/0
[Cs]
-14.0 -15.7 87 -26 -26 1011.2 985.3
12 21.09 Ю 7 15 км 9/0
[Cs]
-13.6 -15.2 88 -23 -23 1011.5 985.6 -14.5 -11.2
15 21.09 Ю 4 1200 м туман местами 9/0
[Cs]
-12.2 -13.7 89 -19 -17 1011.0 985.0
18 21.09 СЗ 4 15 км {туман} 6/0
[Cs]
-9.9 -11.1 91 -17 -14 1009.5 983.7
21 21.09 СЗ 2 15 км 6/0
[Cs]
-11.0 -12.3 90 -16 -15 1009.1 983.3
00 22.09 С 4 15 км 6/0
[Cs]
-11.3 -12.7 89 -18 -18 1008.2 982.4 -15.1 -8.8
03 22.09 С 7 15 км 8/0
[Cs]
-10.6 -11.9 90 -20 -20 1007.0 981.4

 

Местоположение метеостанции Marambio Base (Антарктида): широта -64.23 долгота -56.71 высота над уровнем моря 198 м.

В архиве по умолчанию представлена погода в Marambio Base за последнюю неделю. Архивные данные за месяц целиком и за предыдущие месяцы, начиная с января 2011 года, Вы можете получить, выбрав интересующий диапазон дат из раскрывающегося списка и нажав кнопку "Ввод!".


*Определитесь, кто Вы:
робот инопланетянин человек

Внимание! Время в таблицах - всемирное. Для получения местного времени необходимо прибавить поправку, которая в Marambio Base равна 0 ч.

Смотрите также архив погоды в соседних городах и на ближайших метеорологических станциях:

Погода в Esperanza Base (Антарктида) (93 км)
Погода в Bernardo o`Higgins (Антарктида) (118 км)
Погода в Carlini Base (Антарктида) (242 км)
Погода в Captain Arturo Prat Base (Антарктида) (243 км)
Погода в King Sejong (Антарктида) (247 км)
Погода в Great Wall (Антарктида) (251 км)
Погода в Dinamet-Uruguay (Антарктида) (252 км)
Погода в Bellingshausen (Антарктида) (252 км)
Погода в Juan Carlos Island (Антарктида) (253 км)
Погода в Frei Chi-Base (Антарктида) (255 км)

Пояснения к столбцам:

Ветер - указаны скорость ветра в м/с - средняя за 10 мин, порывы в срок и между сроками (в фигурных скобках) и направление, откуда дует ветер: С - северный, СВ - северо-восточный, В - восточный, ЮВ - юго-восточный, Ю - южный, ЮЗ - юго-западный, З - западный, СЗ - северо-западный.
Видимость - горизонтальная дальность видимости в метрах или километрах. При видимости от 1 до 10 км при отсутствии осадков обычно наблюдается дымка, при ухудшении видимости до 1 км и менее - туман. В сухую погоду видимость может ухудшаться дымом, пылью или мглою.
Явления - указаны атмосферные явления, наблюдавшиеся в срок или в последний час перед сроком; фигурными скобками обозначены явления, наблюдавшиеся между сроками (за 1-3 часа до срока); квадратными скобками обозначены град или гололедные отложения с указанием их диаметра в мм.
Облачность - указаны через наклонную черту общая и нижняя облачность в баллах и высота нижней границы облаков в метрах; квадратными скобками обозначены формы облаков: Ci - перистые, Cs - перисто-слоистые, Cc - перисто-кучевые, Ac - высококучевые, As - высокослоистые, Sc - слоисто-кучевые, Ns - слоисто-дождевые, Cu - кучевые, Cb - кучево-дождевые. Подробнее классификацию облаков см. в Атласе облаков (PDF).
T - Температура воздуха - температура, измеренная на высоте 2 м над землей.
Td - Температура точки росы - температура, при понижении до которой содержащийся в воздухе водяной пар достигнет насыщения.
f - Относительная влажность воздуха - влажноcть воздуха, измеренная на высоте 2 м над землей.
Te - Эффективная температура - температура, которую ощущает одетый по сезону человек в тени. Характеристика душности погоды. При расчете учитывается влияние влажности воздуха и скорости ветра на теплоощущения человека.
Tes - Эффективная температура на солнце - температура, которую ощущает человек, с поправкой на солнечный нагрев. Характеристика знойности погоды. Зависит от высоты солнца над горизонтом, облачности и скорости ветра. Ночью, в пасмурную погоду, а также при ветре 12 м/с и более поправка равна нулю.
P - Атмосферное давление - приведенное к уровню моря атмосферное давление.
Po - Атмосферное давление - измеренное на уровне метеостанции атмосферное давление.
Tmin - Минимальная температура - минимум температуры воздуха на высоте 2 м над землей.
Tmax - Максимальная температура - максимум температуры воздуха на высоте 2 м над землей.
R - Количество осадков - Количество выпавших осадков за период времени, мм. При наведении курсора мыши на число - период времени, за который выпало указанное количество осадков.
R24 - Количество осадков - Количество выпавших осадков за 24 часа, мм.
S - Снежный покров - Высота снежного покрова, см. При наведении курсора мыши на число - состояние снежного покрова и степень покрытия местности в баллах.